Location: Harwich
(41.7160°N, 69.9939°W)
Time: 01:31:23
(UTC+02:00)

AO-7 - Pass Details

Date: 21 September 2024
Orbit: 1440 x 1458 km, 102.0° (Epoch: 10 October)

Event Time Altitude Azimuth Distance (km) Brightness Sun altitude
Rises 11:29:13 0° 24° (NNE) 4,572 ? -11.5°
Reaches altitude 10° 11:32:19 10° 32° (NNE) 3,588 ? -11.0°
Maximum altitude 11:40:00 39° 99° (E) 2,059 ? -9.5°
Drops below altitude 10° 11:47:36 10° 165° (SSE) 3,559 ? -8.1°
Sets 11:50:37 0° 173° (S) 4,531 ? -7.6°
